Location: Central Coast NSW, Australia
(33.2407°S, 151.4316°E)
Time: 10:19:03
(UTC+10:00)

N. Korean satellite - Pass Details

Date: 29 March 2019
Orbit: 457 x 508 km, 97.2° (Epoch: 19 April)

Event Time Altitude Azimuth Distance (km) Brightness Sun altitude
Rises 19:50:16 0° 189° (S) 2,580 10.4 -12.5°
Reaches altitude 10° 19:52:55 10° 210° (SSW) 1,678 9.8 -13.0°
Maximum altitude 19:55:15 17° 250° (WSW) 1,306 9.9 -13.5°
Drops below altitude 10° 19:57:32 10° 291° (WNW) 1,644 10.3 -14.0°
Sets 20:00:07 0° 312° (NW) 2,501 10.8 -14.5°
